Strona główna
METAR-TAF:

METAR-TAF

Lotnisko :

Nashua, New Hampshire, Stany Zjednoczone

Szerokość geograficzna: 42-47N, Długość geograficzna: 071-31W, wysokość: 61 m

Aktualna obserwacja pogody

Raport powstał 4 minut temu, godzina 17:56 UTC
Wiatr 5 kt z kierunków zmiennych
Temperatura 3°C
Wilgotność 48%
Ciśnienie 1020 hPa
Widzialność: 16.1 km
bezchmurnie

METAR: KASH 231756Z VRB05KT 10SM CLR 03/M07 A3013 RMK AO2 SLP215 P0006 60007 T00281072 10028 21072 56047 $

czas: 13:00 (18:00 UTC)


TAF: brakujący

Obserwacja i prognoza pogody dla ponad 4000 lotnisk (raport METAR i TAF).

Dostępne stacje oznaczono żółtymi i czerwonymi punktami na mapie.

Najedź kursorem aby zobaczyć nazwę stacji.

Kliknij aby zobaczyć obserwacje i prognozy pogody.

Aby zmienić mapę: kliknij na zielony przycisk z czarnym krzyżykiem, aby powiększyć; na zielony przycisk z myślnikiem, aby pomniejszyć; na zielone strzałki, aby przejść do map sąsiednich.


METAR-TAF: